This is the latest recevied weather packets stored in our database for station/object N3OZD-10. If no packets are shown the sender has not sent any weather packets the latest 10 day(s).
| Time | Temp. | Humidity | Pressure | Rain* | Wind** | Luminosity | Snow |
|---|---|---|---|---|---|---|---|
| 1778241450 | 12.22° C | 61% | 1014.9 hPa | 0 mm | - | - | - |
| 1778241140 | 11.67° C | 63% | 1014.8 hPa | 0 mm | - | - | - |
| 1778240842 | 11.67° C | 63% | 1014.8 hPa | 0 mm | - | - | - |
| 1778240539 | 11.11° C | 64% | 1014.8 hPa | 0 mm | - | - | - |
| 1778240240 | 10.56° C | 65% | 1014.8 hPa | 0 mm | - | - | - |
| 1778239943 | 10.56° C | 66% | 1014.7 hPa | 0 mm | - | - | - |
| 1778239640 | 10° C | 68% | 1014.6 hPa | 0 mm | - | - | - |
| 1778239339 | 10° C | 72% | 1014.7 hPa | 0 mm | - | - | - |
| 1778239039 | 9.44° C | 74% | 1014.6 hPa | 0 mm | - | - | - |
| 1778238739 | 8.89° C | 75% | 1014.5 hPa | 0 mm | - | - | - |
| 1778238439 | 8.33° C | 78% | 1014.5 hPa | 0 mm | - | - | - |
| 1778238139 | 8.33° C | 78% | 1014.4 hPa | 0 mm | - | - | - |
| 1778237839 | 7.78° C | 76% | 1014.4 hPa | 0 mm | - | - | - |
| 1778237539 | 8.33° C | 77% | 1014.2 hPa | 0 mm | - | - | - |
| 1778237239 | 7.78° C | 78% | 1014.2 hPa | 0 mm | - | - | - |
| 1778236940 | 7.22° C | 79% | 1014.2 hPa | 0 mm | - | - | - |
| 1778236640 | 7.22° C | 79% | 1014.3 hPa | 0 mm | - | - | - |
| 1778236039 | 7.22° C | 75% | 1014.1 hPa | 0 mm | - | - | - |
| 1778235739 | 7.22° C | 74% | 1014 hPa | 0 mm | - | - | - |
| 1778235439 | 7.22° C | 74% | 1013.9 hPa | 0 mm | - | - | - |
| 1778235139 | 7.22° C | 72% | 1013.8 hPa | 0 mm | - | - | - |
| 1778234839 | 7.22° C | 72% | 1013.8 hPa | 0 mm | - | - | - |
| 1778234539 | 7.78° C | 72% | 1013.8 hPa | 0 mm | - | - | - |
| 1778234239 | 7.78° C | 72% | 1013.8 hPa | 0 mm | - | - | - |
| 1778233939 | 7.78° C | 70% | 1013.8 hPa | 0 mm | - | - | - |
* Rain latest hour (hover to see other rain measurements)
** Current wind speed in m/s (hover to see current wind gust speed)